Location: Newark
(45.5000°N, 11.4167°E)
Time: 05:11:01
(UTC+00:00)

Vanguard 3 - Pass Details

Date: 25 August 2019
Orbit: 508 x 3263 km, 33.4° (Epoch: 19 September)

Event Time Altitude Azimuth Distance (km) Brightness Sun altitude
Rises 19:26:22 0° 256° (WSW) 3,381 11.1 -13.8°
Reaches altitude 10° 19:30:59 10° 222° (SW) 2,014 9.3 -14.5°
Maximum altitude 19:32:16 11° 205° (SSW) 1,848 8.9 -14.7°
Drops below altitude 10° 19:33:29 10° 187° (S) 1,845 8.7 -14.8°
Enters shadow 19:33:58 - 180° (S) 1,887 8.7 -14.9°
Sets 19:37:03 0° 149° (SSE) 2,600 - -15.4°
